Flag for India Weather past 2 weeks in Bharatpur, Rajasthan, India

Now
86 °F

Broken clouds.


Feels Like: 97 °F
Forecast: 84 / 97 °F
Wind: 8 mph from East

Location: New Delhi Palam Airport

Current Time: Jul 23, 2014 at 7:03:51 PM

Latest Report: Jul 23, 2014 at 6:30 PM


Visibility: 2 mi

Pressure: 29.47 "Hg

Humidity: 75%

Dew point: 77 °F

Location of BharatpurLocation

Historic Weather in Bharatpur — Graph

°F

Bharatpur temperature yesterday

Maximum temperature yesterday: 93 °F (at 12:30 PM)
Minimum temperature yesterday: 86 °F (at 1:00 AM)
Average temperature yesterday: 89 °F

Past Weeks' High & Low Weather Summary

 TemperatureHumidityPressure
High106 °F (Jul 9, 5:30 PM)100% (Jul 17, 8:00 PM)29.59 "Hg (Jul 17, 8:00 PM)
Low79 °F (Jul 17, 8:00 PM)20% (Jul 11, 3:00 PM)29.39 "Hg (Jul 12, 5:00 PM)
Average90 °F64%29.48 "Hg
* Reported Jul 8 5:30 PM — Jul 23 5:30 PM, Bharatpur, Weather by CustomWeather, © 2014

Note: Actual official high and low records may vary slightly from our data, if they occured in-between our weather recording intervals... More about our weather records

Advertising

Bharatpur weather history for previous 24 hours

 ConditionsComfort  
Time TempWeatherWind HumidityBarometerVisibility
5:30 PM
Jul 23
86 °FBroken clouds.10 mph70%29.47 "Hg3 mi
5:00 PM86 °FBroken clouds.10 mph70%29.47 "Hg3 mi
3:30 PM90 °FBroken clouds.9 mph59%29.50 "Hg3 mi
3:00 PM90 °FBroken clouds.9 mph59%29.50 "Hg3 mi
2:30 PM90 °FBroken clouds.9 mph59%29.50 "Hg3 mi
1:30 PM90 °FBroken clouds.12 mph63%29.53 "Hg3 mi
1:00 PM90 °FBroken clouds.N/A63%29.53 "Hg3 mi
11:00 AM90 °FBroken clouds.14 mph63%29.53 "Hg3 mi
9:30 AM88 °FBroken clouds.12 mph70%29.56 "Hg2 mi
9:00 AM88 °FBroken clouds.10 mph70%29.56 "Hg2 mi
8:30 AM86 °FBroken clouds.9 mph75%29.53 "Hg2 mi
7:00 AM86 °FFog.7 mph79%29.53 "Hg2 mi
6:30 AM84 °FFog.7 mph84%29.50 "Hg2 mi
6:00 AM84 °FFog.7 mph84%29.50 "Hg2 mi
5:00 AM84 °FFog.7 mph84%29.47 "Hg2 mi
4:30 AM84 °FFog.6 mph84%29.47 "Hg2 mi
10:30 PM
Jul 22
88 °FFog.6 mph79%29.50 "Hg1 mi
10:00 PM88 °FPassing clouds.6 mph75%29.50 "Hg2 mi
8:30 PM91 °FPassing clouds.6 mph67%29.50 "Hg2 mi
8:00 PM91 °FPassing clouds.5 mph67%29.50 "Hg2 mi
7:30 PM91 °FScattered clouds.7 mph63%29.47 "Hg2 mi
7:00 PM91 °FScattered clouds.5 mph63%29.47 "Hg2 mi
Weather by CustomWeather, © 2014

See weather overviewHow to use our weather pages